AXM890 WMKK-VTBS

Flight info

Callsign AXM890
Flight time N/A
Altitude 36000
Route BIKDU1D BIKDU Y501 RIGTO M769 LEBIM LEBIM1C
Aircraft A320/M-SDE3FGHIRWY/LB1

Departure

Time 2026-05-04 20:24
Airport Kuala Lumpur International Airport (WMKK)

Arrival

Time N/A
Airport Suvarnabhumi Airport (VTBS)
Time Latitude Longitude Altitude Speed Heading
2026-05-04 20:17 2.74867 101.71719 71 ft 0 kts 57°
2026-05-04 20:17 2.74868 101.71721 71 ft 2 kts 57°
2026-05-04 20:18 2.74895 101.71760 71 ft 11 kts 56°
2026-05-04 20:18 2.74948 101.71842 71 ft 15 kts 57°
2026-05-04 20:18 2.75004 101.71927 73 ft 9 kts 56°
2026-05-04 20:18 2.75007 101.71932 69 ft 0 kts 56°
2026-05-04 20:20 2.75013 101.71941 72 ft 7 kts 56°
2026-05-04 20:20 2.75033 101.71970 73 ft 0 kts 55°
2026-05-04 20:21 2.75036 101.71975 71 ft 1 kts 56°
2026-05-04 20:22 2.75041 101.71982 71 ft 1 kts 56°
2026-05-04 20:22 2.75054 101.72002 76 ft 7 kts 56°
2026-05-04 20:22 2.75088 101.72028 74 ft 6 kts 11°
2026-05-04 20:22 2.75129 101.72025 69 ft 6 kts 341°
2026-05-04 20:23 2.75155 101.71996 68 ft 6 kts 310°
2026-05-04 20:23 2.75191 101.71970 73 ft 7 kts 326°
2026-05-04 20:23 2.75284 101.71907 75 ft 46 kts 326°
2026-05-04 20:23 2.75798 101.71562 71 ft 127 kts 326°
2026-05-04 20:24 2.76687 101.70961 310 ft 165 kts 325°
2026-05-04 20:24 2.77630 101.70315 1132 ft 164 kts 326°
2026-05-04 20:24 2.78594 101.69666 1806 ft 178 kts 327°
2026-05-04 20:24 2.79715 101.68963 2289 ft 202 kts 336°
2026-05-04 20:25 2.81110 101.68431 2827 ft 226 kts 340°
2026-05-04 20:25 2.82674 101.67876 3415 ft 251 kts 341°
2026-05-04 20:25 2.84382 101.67282 4165 ft 267 kts 341°
2026-05-04 20:25 2.86156 101.66661 5160 ft 273 kts 341°
2026-05-04 20:26 2.87963 101.66024 6191 ft 277 kts 340°
2026-05-04 20:26 2.89839 101.65515 7139 ft 282 kts 353°
2026-05-04 20:26 2.91811 101.65539 8090 ft 287 kts 10°
2026-05-04 20:26 2.93724 101.66140 9049 ft 291 kts 27°
2026-05-04 20:27 2.95490 101.67149 9994 ft 295 kts 31°
2026-05-04 20:27 2.97299 101.68210 10602 ft 312 kts 31°
2026-05-04 20:27 2.99290 101.69189 11000 ft 333 kts 17°
2026-05-04 20:27 3.01624 101.69429 11695 ft 343 kts 354°
2026-05-04 20:28 3.03955 101.68836 12491 ft 349 kts 342°
2026-05-04 20:28 3.06270 101.68075 13324 ft 353 kts 342°
2026-05-04 20:28 3.08613 101.67284 14077 ft 357 kts 342°
2026-05-04 20:28 3.10986 101.66478 14771 ft 362 kts 342°
2026-05-04 20:29 3.13385 101.65665 15456 ft 366 kts 342°
2026-05-04 20:29 3.15816 101.64844 16141 ft 370 kts 342°
2026-05-04 20:29 3.18244 101.64025 16810 ft 375 kts 342°
2026-05-04 20:29 3.20732 101.63189 17479 ft 380 kts 342°
2026-05-04 20:30 3.23260 101.62344 18135 ft 384 kts 343°
2026-05-04 20:30 3.25817 101.61491 18907 ft 389 kts 343°
2026-05-04 20:30 3.28401 101.60629 19721 ft 394 kts 343°
2026-05-04 20:30 3.31020 101.59754 20511 ft 398 kts 342°
2026-05-04 20:31 3.33661 101.58871 21259 ft 403 kts 342°
2026-05-04 20:31 3.36336 101.57976 21982 ft 407 kts 342°
2026-05-04 20:31 3.39030 101.57074 22674 ft 410 kts 342°
2026-05-04 20:31 3.41756 101.56160 23331 ft 414 kts 342°
2026-05-04 20:32 3.44506 101.55237 23870 ft 418 kts 342°
2026-05-04 20:32 3.47243 101.54321 24368 ft 421 kts 342°
2026-05-04 20:32 3.50031 101.53387 24845 ft 424 kts 342°
2026-05-04 20:32 3.52849 101.52445 25304 ft 427 kts 342°
2026-05-04 20:33 3.55680 101.51500 25749 ft 430 kts 342°
2026-05-04 20:33 3.58526 101.50547 26177 ft 433 kts 342°
2026-05-04 20:33 3.61399 101.49583 26605 ft 436 kts 342°
2026-05-04 20:33 3.64285 101.48614 27022 ft 439 kts 342°
2026-05-04 20:34 3.67192 101.47640 27431 ft 441 kts 342°
2026-05-04 20:34 3.70116 101.46660 27833 ft 444 kts 342°
2026-05-04 20:34 3.73014 101.45688 28219 ft 446 kts 342°
2026-05-04 20:34 3.75966 101.44699 28605 ft 449 kts 342°
2026-05-04 20:35 3.78945 101.43699 28988 ft 452 kts 342°
2026-05-04 20:35 3.81946 101.42694 29361 ft 454 kts 342°
2026-05-04 20:35 3.84930 101.41638 29722 ft 457 kts 338°
2026-05-04 20:35 3.87854 101.40353 30057 ft 460 kts 337°
2026-05-04 20:36 3.90782 101.39052 30361 ft 462 kts 337°
2026-05-04 20:36 3.93725 101.37740 30665 ft 464 kts 336°
2026-05-04 20:36 3.96678 101.36421 30954 ft 466 kts 337°
2026-05-04 20:36 3.99645 101.35093 31240 ft 468 kts 336°
2026-05-04 20:37 4.02623 101.33761 31519 ft 469 kts 337°
2026-05-04 20:37 4.05612 101.32427 31800 ft 471 kts 337°
2026-05-04 20:37 4.08573 101.31109 32136 ft 471 kts 337°
2026-05-04 20:37 4.11566 101.29781 32519 ft 470 kts 337°
2026-05-04 20:38 4.14554 101.28457 32912 ft 469 kts 337°
2026-05-04 20:38 4.17534 101.27132 33306 ft 468 kts 337°
2026-05-04 20:38 4.20516 101.25803 33706 ft 467 kts 337°
2026-05-04 20:38 4.23493 101.24478 34097 ft 466 kts 337°
2026-05-04 20:39 4.26447 101.23163 34467 ft 464 kts 337°
2026-05-04 20:39 4.29354 101.21868 34839 ft 462 kts 337°
2026-05-04 20:39 4.32284 101.20563 35225 ft 460 kts 337°
2026-05-04 20:39 4.35211 101.19261 35602 ft 458 kts 337°
2026-05-04 20:40 4.38121 101.17967 35820 ft 457 kts 337°
2026-05-04 20:40 4.41011 101.16680 35872 ft 451 kts 337°
2026-05-04 20:40 4.46701 101.14141 35867 ft 446 kts 336°
2026-05-04 20:41 4.52368 101.11614 35866 ft 445 kts 337°
2026-05-04 20:41 4.58022 101.09106 35865 ft 444 kts 337°
2026-05-04 20:42 4.63687 101.06643 35863 ft 444 kts 338°
2026-05-04 20:42 4.69326 101.04224 35868 ft 443 kts 338°